Location: ?????
(44.4284°N, 135.2222°E)
Time: 02:47:05
(UTC+00:00)

Cosmos 1174 - Pass Details

Date: 19 May 2025
Orbit: 361 x 1061 km, 66.1° (Epoch: 14 June)

Event Time Altitude Azimuth Distance (km) Brightness Sun altitude
Exits shadow 17:50:55 25° 236° (SW) 1,025 4.6 -14.2°
Maximum altitude 17:52:52 58° 307° (NW) 628 4.0 -14.0°
Drops below altitude 10° 17:57:17 10° 27° (NNE) 2,012 8.0 -13.4°
Sets 17:59:53 0° 31° (NNE) 3,059 9.4 -13.1°
